JBU783 KJFK-KMKE

Flight info

Callsign JBU783
Flight time N/A
Altitude 36000
Route DEEZZ6 CANDR J60 DJB CRL PEGEE GETCH LYSTR SUDDS
Aircraft A321/M-SDE3FGHIRWY/LB1

Departure

Time N/A
Airport John F. Kennedy International Airport (KJFK)

Arrival

Time 2026-05-08 16:58
Airport General Mitchell International Airport (KMKE)
Time Latitude Longitude Altitude Speed Heading
2026-05-08 14:56 41.18547 -74.28722 29701 ft 370 kts 277°
2026-05-08 14:56 41.18839 -74.32102 30190 ft 368 kts 277°
2026-05-08 14:56 41.19144 -74.35480 30605 ft 367 kts 277°
2026-05-08 14:57 41.19457 -74.38834 30973 ft 367 kts 277°
2026-05-08 14:57 41.19676 -74.42207 31326 ft 367 kts 271°
2026-05-08 14:57 41.19406 -74.45642 31673 ft 372 kts 262°
2026-05-08 14:57 41.18605 -74.48918 32010 ft 379 kts 252°
2026-05-08 14:58 41.17318 -74.52011 32334 ft 385 kts 246°
2026-05-08 14:58 41.15926 -74.55048 32684 ft 385 kts 246°
2026-05-08 14:58 41.14541 -74.58077 33033 ft 384 kts 246°
2026-05-08 14:58 41.13156 -74.61108 33374 ft 384 kts 246°
2026-05-08 14:59 41.11771 -74.64135 33700 ft 384 kts 246°
2026-05-08 14:59 41.08992 -74.70185 34281 ft 384 kts 246°
2026-05-08 14:59 41.07604 -74.73202 34540 ft 384 kts 246°
2026-05-08 15:00 41.06215 -74.76221 34777 ft 384 kts 246°
2026-05-08 15:00 41.04809 -74.79281 35027 ft 384 kts 246°
2026-05-08 15:00 41.03416 -74.82311 35275 ft 385 kts 246°
2026-05-08 15:00 41.02023 -74.85333 35520 ft 385 kts 246°
2026-05-08 15:01 41.00627 -74.88352 35769 ft 385 kts 245°
2026-05-08 15:01 40.99230 -74.91393 35975 ft 386 kts 246°
2026-05-08 15:01 40.96733 -74.97683 35987 ft 380 kts 256°
2026-05-08 15:02 40.95156 -75.04341 35987 ft 379 kts 258°
2026-05-08 15:02 40.93613 -75.10994 35983 ft 378 kts 258°
2026-05-08 15:03 40.92066 -75.17643 35984 ft 378 kts 258°
2026-05-08 15:03 40.90515 -75.24286 35988 ft 378 kts 257°
2026-05-08 15:04 40.88955 -75.30937 35988 ft 379 kts 257°
2026-05-08 15:04 40.87383 -75.37597 36013 ft 379 kts 257°
2026-05-08 15:05 40.85814 -75.44254 36019 ft 380 kts 258°
2026-05-08 15:05 40.84241 -75.50911 36017 ft 380 kts 257°
2026-05-08 15:06 40.82657 -75.57564 36018 ft 380 kts 257°
2026-05-08 15:06 40.81077 -75.64216 36017 ft 380 kts 257°
2026-05-08 15:07 40.79496 -75.70865 36020 ft 380 kts 257°
2026-05-08 15:07 40.77901 -75.77519 36021 ft 380 kts 257°
2026-05-08 15:08 40.76561 -75.83088 36018 ft 380 kts 257°
2026-05-08 15:08 40.74694 -75.90850 36021 ft 380 kts 257°
2026-05-08 15:09 40.73091 -75.97497 36019 ft 380 kts 257°
2026-05-08 15:09 40.71481 -76.04137 36016 ft 380 kts 257°
2026-05-08 15:10 40.69862 -76.10778 36019 ft 380 kts 257°
2026-05-08 15:10 40.68247 -76.17412 36017 ft 380 kts 257°
2026-05-08 15:11 40.67097 -76.24149 36016 ft 374 kts 270°
2026-05-08 15:11 40.67677 -76.30895 36020 ft 372 kts 281°
2026-05-08 15:12 40.68684 -76.37583 36023 ft 372 kts 281°
2026-05-08 15:12 40.69680 -76.44282 36024 ft 373 kts 281°
2026-05-08 15:13 40.70676 -76.50989 36025 ft 373 kts 281°
2026-05-08 15:13 40.71667 -76.57696 36024 ft 373 kts 281°
2026-05-08 15:14 40.72656 -76.64410 36019 ft 373 kts 281°
2026-05-08 15:14 40.73476 -76.70039 36017 ft 373 kts 280°
2026-05-08 15:15 40.74457 -76.76761 36018 ft 374 kts 281°
2026-05-08 15:15 40.75439 -76.83484 36017 ft 374 kts 281°
2026-05-08 15:16 40.76413 -76.90215 36018 ft 374 kts 281°
2026-05-08 15:16 40.77382 -76.96951 36018 ft 374 kts 280°
2026-05-08 15:17 40.78350 -77.03687 36020 ft 374 kts 280°
2026-05-08 15:17 40.79314 -77.10426 36021 ft 374 kts 280°
2026-05-08 15:18 40.80272 -77.17169 36019 ft 374 kts 280°
2026-05-08 15:18 40.81235 -77.23914 36017 ft 374 kts 280°
2026-05-08 15:19 40.82190 -77.30669 36014 ft 374 kts 280°
2026-05-08 15:19 40.83136 -77.37423 36009 ft 374 kts 280°
2026-05-08 15:20 40.84077 -77.44193 36006 ft 374 kts 280°
2026-05-08 15:20 40.85015 -77.50954 36004 ft 375 kts 280°
2026-05-08 15:21 40.85955 -77.57729 36002 ft 375 kts 280°
2026-05-08 15:21 40.86889 -77.64513 35990 ft 375 kts 280°
2026-05-08 15:22 40.87829 -77.71335 35986 ft 376 kts 280°
2026-05-08 15:22 40.88761 -77.78133 35988 ft 376 kts 280°
2026-05-08 15:23 40.89687 -77.84932 35983 ft 376 kts 280°
2026-05-08 15:23 40.90607 -77.91737 35983 ft 376 kts 279°
2026-05-08 15:24 40.91522 -77.98553 35987 ft 376 kts 280°
2026-05-08 15:24 40.92412 -78.05377 35989 ft 377 kts 279°
2026-05-08 15:25 40.93247 -78.12224 35992 ft 377 kts 279°
2026-05-08 15:25 40.94082 -78.19070 35999 ft 377 kts 279°
2026-05-08 15:26 40.94925 -78.25925 35998 ft 378 kts 279°
2026-05-08 15:26 40.95767 -78.32788 36000 ft 378 kts 279°
2026-05-08 15:27 40.96596 -78.39657 36005 ft 378 kts 279°
2026-05-08 15:27 40.97425 -78.46540 36003 ft 379 kts 279°
2026-05-08 15:28 40.98255 -78.53468 36002 ft 379 kts 279°
2026-05-08 15:28 40.99074 -78.60322 35996 ft 379 kts 279°
2026-05-08 15:29 40.99901 -78.67230 36001 ft 380 kts 279°
2026-05-08 15:29 41.00731 -78.74188 35990 ft 380 kts 278°
2026-05-08 15:30 41.01546 -78.81110 35989 ft 381 kts 278°
2026-05-08 15:30 41.02354 -78.88033 35988 ft 381 kts 278°
2026-05-08 15:31 41.03157 -78.94960 35987 ft 381 kts 278°
2026-05-08 15:31 41.03958 -79.01896 35988 ft 381 kts 278°
2026-05-08 15:32 41.04762 -79.08838 35991 ft 381 kts 278°
2026-05-08 15:32 41.05560 -79.15788 35998 ft 381 kts 278°
2026-05-08 15:33 41.06360 -79.22780 36003 ft 381 kts 278°
2026-05-08 15:33 41.07145 -79.29728 36008 ft 381 kts 278°
2026-05-08 15:34 41.07926 -79.36681 36018 ft 382 kts 278°
2026-05-08 15:34 41.08704 -79.43637 36019 ft 382 kts 278°
2026-05-08 15:35 41.09478 -79.50604 36021 ft 382 kts 278°
2026-05-08 15:35 41.10250 -79.57565 36019 ft 382 kts 278°
2026-05-08 15:36 41.10892 -79.63401 36019 ft 382 kts 278°
2026-05-08 15:36 41.11778 -79.71502 36014 ft 382 kts 278°
2026-05-08 15:37 41.12538 -79.78518 36016 ft 382 kts 278°
2026-05-08 15:37 41.13295 -79.85503 36017 ft 382 kts 278°
2026-05-08 15:38 41.14049 -79.92474 36020 ft 382 kts 278°
2026-05-08 15:38 41.14797 -79.99461 36018 ft 382 kts 278°
2026-05-08 15:39 41.15537 -80.06432 36021 ft 382 kts 278°
2026-05-08 15:39 41.16274 -80.13413 36029 ft 382 kts 278°
2026-05-08 15:40 41.17009 -80.20393 36030 ft 382 kts 278°
2026-05-08 15:40 41.17747 -80.27423 36032 ft 382 kts 278°
2026-05-08 15:41 41.18473 -80.34402 36031 ft 382 kts 278°
2026-05-08 15:41 41.19189 -80.41378 36030 ft 381 kts 278°
2026-05-08 15:42 41.19907 -80.48367 36023 ft 381 kts 278°
2026-05-08 15:42 41.20620 -80.55334 36019 ft 381 kts 278°
2026-05-08 15:43 41.21329 -80.62311 36020 ft 381 kts 277°
2026-05-08 15:43 41.22032 -80.69287 36019 ft 381 kts 278°
2026-05-08 15:44 41.22614 -80.75131 36019 ft 381 kts 277°
2026-05-08 15:44 41.23300 -80.82107 36018 ft 381 kts 277°
2026-05-08 15:45 41.23986 -80.89075 36017 ft 381 kts 277°
2026-05-08 15:45 41.24672 -80.96048 36013 ft 380 kts 277°
2026-05-08 15:46 41.25354 -81.03015 36008 ft 380 kts 277°
2026-05-08 15:46 41.26031 -81.09976 36006 ft 380 kts 277°
2026-05-08 15:47 41.26705 -81.16928 36006 ft 379 kts 277°
2026-05-08 15:47 41.27372 -81.23890 36007 ft 379 kts 277°
2026-05-08 15:48 41.28373 -81.34362 36007 ft 379 kts 277°
2026-05-08 15:49 41.29033 -81.41320 36007 ft 379 kts 277°
2026-05-08 15:49 41.29680 -81.48260 36005 ft 378 kts 277°
2026-05-08 15:50 41.30318 -81.55207 36000 ft 378 kts 277°
2026-05-08 15:50 41.30958 -81.62144 35993 ft 378 kts 277°
2026-05-08 15:51 41.31599 -81.69082 35994 ft 378 kts 277°
2026-05-08 15:51 41.32238 -81.76021 35995 ft 378 kts 277°
2026-05-08 15:52 41.32864 -81.82949 35991 ft 377 kts 277°
2026-05-08 15:52 41.33483 -81.89866 35987 ft 377 kts 277°
2026-05-08 15:53 41.34098 -81.96783 35992 ft 376 kts 277°
2026-05-08 15:53 41.34716 -82.03745 36009 ft 376 kts 277°
2026-05-08 15:54 41.35325 -82.10646 36008 ft 376 kts 277°
2026-05-08 15:54 41.36676 -82.17374 36008 ft 377 kts 294°
2026-05-08 15:55 41.39620 -82.23217 36012 ft 381 kts 301°
2026-05-08 15:55 41.44274 -82.31802 36014 ft 382 kts 301°
2026-05-08 15:56 41.47384 -82.37555 36011 ft 382 kts 301°
2026-05-08 15:56 41.50488 -82.43303 36009 ft 382 kts 301°
2026-05-08 15:57 41.53587 -82.49054 36003 ft 382 kts 301°
2026-05-08 15:57 41.56689 -82.54820 36002 ft 382 kts 301°
2026-05-08 15:58 41.59787 -82.60596 35999 ft 382 kts 301°
2026-05-08 15:58 41.62882 -82.66375 35998 ft 383 kts 301°
2026-05-08 15:59 41.65978 -82.72168 35998 ft 383 kts 301°
2026-05-08 15:59 41.69092 -82.77998 35999 ft 383 kts 301°
2026-05-08 16:00 41.72165 -82.83768 36000 ft 383 kts 301°
2026-05-08 16:00 41.75270 -82.89616 35996 ft 383 kts 301°
2026-05-08 16:01 41.78345 -82.95425 35996 ft 383 kts 301°
2026-05-08 16:01 41.81429 -83.01245 35995 ft 383 kts 301°
2026-05-08 16:02 41.84514 -83.07069 35992 ft 383 kts 301°
2026-05-08 16:02 41.87592 -83.12900 35984 ft 383 kts 301°
2026-05-08 16:03 41.90667 -83.18761 35990 ft 384 kts 301°
2026-05-08 16:03 41.93749 -83.24620 35998 ft 384 kts 301°
2026-05-08 16:04 41.96825 -83.30476 36002 ft 384 kts 301°
2026-05-08 16:04 41.99895 -83.36337 36003 ft 383 kts 301°
2026-05-08 16:05 42.02956 -83.42215 35999 ft 383 kts 301°
2026-05-08 16:05 42.06374 -83.47811 35999 ft 390 kts 310°
2026-05-08 16:06 42.10291 -83.52866 35990 ft 390 kts 310°
2026-05-08 16:06 42.14200 -83.57950 35994 ft 391 kts 310°
2026-05-08 16:07 42.18109 -83.63049 35955 ft 390 kts 310°
2026-05-08 16:07 42.20054 -83.65583 35438 ft 389 kts 310°
2026-05-08 16:07 42.21996 -83.68115 34877 ft 388 kts 309°
2026-05-08 16:08 42.23933 -83.70644 34324 ft 387 kts 309°
2026-05-08 16:08 42.25862 -83.73163 33763 ft 385 kts 309°
2026-05-08 16:08 42.27785 -83.75682 33069 ft 385 kts 309°
2026-05-08 16:08 42.29735 -83.78238 32270 ft 388 kts 309°
2026-05-08 16:09 42.31673 -83.80779 31448 ft 391 kts 310°
2026-05-08 16:09 42.32995 -83.82515 30905 ft 394 kts 310°
2026-05-08 16:09 42.35628 -83.85978 29748 ft 399 kts 310°
2026-05-08 16:09 42.37641 -83.88629 28759 ft 403 kts 310°
2026-05-08 16:10 42.39674 -83.91305 28131 ft 405 kts 310°
2026-05-08 16:10 42.41707 -83.93981 27944 ft 408 kts 310°
2026-05-08 16:10 42.43744 -83.96664 27951 ft 409 kts 310°
2026-05-08 16:10 42.45780 -83.99353 27958 ft 410 kts 310°
2026-05-08 16:11 42.47823 -84.02055 27953 ft 410 kts 310°
2026-05-08 16:11 42.49174 -84.03843 27955 ft 410 kts 310°
2026-05-08 16:11 42.51242 -84.06583 27955 ft 410 kts 310°
2026-05-08 16:11 42.53941 -84.10162 27958 ft 410 kts 310°
2026-05-08 16:12 42.55321 -84.11994 27953 ft 410 kts 310°
2026-05-08 16:12 42.57365 -84.14703 27957 ft 411 kts 310°
2026-05-08 16:12 42.59405 -84.17403 27959 ft 411 kts 310°
2026-05-08 16:12 42.61448 -84.20114 27963 ft 411 kts 310°
2026-05-08 16:13 42.63519 -84.22871 27955 ft 411 kts 310°
2026-05-08 16:13 42.65527 -84.25548 27947 ft 411 kts 310°
2026-05-08 16:13 42.67597 -84.28308 27946 ft 411 kts 310°
2026-05-08 16:13 42.69633 -84.31025 27959 ft 411 kts 310°
2026-05-08 16:14 42.71672 -84.33750 27955 ft 411 kts 310°
2026-05-08 16:14 42.73713 -84.36485 27952 ft 411 kts 310°
2026-05-08 16:14 42.75777 -84.39251 27953 ft 411 kts 310°
2026-05-08 16:14 42.77812 -84.41983 27962 ft 412 kts 310°
2026-05-08 16:15 42.79855 -84.44725 27954 ft 412 kts 310°
2026-05-08 16:15 42.81892 -84.47461 27952 ft 412 kts 310°
2026-05-08 16:15 42.83932 -84.50204 27955 ft 412 kts 310°
2026-05-08 16:15 42.85967 -84.52941 27959 ft 412 kts 310°
2026-05-08 16:16 42.88014 -84.55692 27954 ft 412 kts 309°
2026-05-08 16:16 42.90058 -84.58449 27966 ft 412 kts 310°
2026-05-08 16:16 42.92094 -84.61199 27953 ft 413 kts 310°
2026-05-08 16:16 42.94136 -84.63957 27960 ft 413 kts 310°
2026-05-08 16:17 42.96177 -84.66712 27953 ft 413 kts 310°
2026-05-08 16:17 42.98219 -84.69475 27954 ft 413 kts 310°
2026-05-08 16:17 43.00287 -84.72279 27955 ft 413 kts 310°
2026-05-08 16:17 43.02321 -84.75042 27956 ft 413 kts 310°
2026-05-08 16:18 43.04367 -84.77823 27946 ft 414 kts 310°
2026-05-08 16:18 43.06402 -84.80592 27946 ft 414 kts 310°
2026-05-08 16:18 43.08442 -84.83365 27944 ft 414 kts 310°
2026-05-08 16:18 43.10402 -84.86227 27947 ft 410 kts 304°
2026-05-08 16:19 43.12010 -84.89430 27941 ft 406 kts 296°
2026-05-08 16:19 43.13227 -84.92900 27942 ft 403 kts 289°
2026-05-08 16:19 43.14047 -84.96550 27939 ft 402 kts 281°
2026-05-08 16:19 43.14459 -85.00336 27950 ft 401 kts 274°
2026-05-08 16:20 43.14576 -85.04151 27942 ft 402 kts 272°
2026-05-08 16:20 43.14678 -85.07973 27941 ft 402 kts 272°
2026-05-08 16:20 43.14782 -85.11800 27942 ft 402 kts 272°
2026-05-08 16:20 43.14886 -85.15620 27948 ft 402 kts 272°
2026-05-08 16:21 43.14986 -85.19448 27940 ft 402 kts 272°
2026-05-08 16:21 43.15083 -85.23266 27941 ft 402 kts 272°
2026-05-08 16:21 43.15181 -85.27108 27941 ft 403 kts 272°
2026-05-08 16:21 43.15277 -85.30940 27946 ft 403 kts 272°
2026-05-08 16:22 43.15371 -85.34776 27940 ft 403 kts 272°
2026-05-08 16:22 43.15461 -85.38617 27942 ft 403 kts 272°
2026-05-08 16:22 43.15550 -85.42452 27941 ft 403 kts 272°
2026-05-08 16:22 43.15639 -85.46332 27873 ft 402 kts 272°
2026-05-08 16:23 43.15729 -85.50151 27009 ft 401 kts 272°
2026-05-08 16:23 43.15817 -85.53986 25939 ft 406 kts 272°
2026-05-08 16:23 43.15904 -85.57873 24871 ft 411 kts 272°
2026-05-08 16:23 43.15991 -85.61802 24278 ft 415 kts 272°
2026-05-08 16:24 43.16076 -85.65758 24048 ft 416 kts 272°
2026-05-08 16:24 43.16164 -85.69772 23903 ft 416 kts 272°
2026-05-08 16:24 43.16251 -85.73736 23933 ft 417 kts 272°
2026-05-08 16:24 43.16335 -85.77697 23936 ft 417 kts 272°
2026-05-08 16:25 43.16416 -85.81677 23930 ft 417 kts 272°
2026-05-08 16:25 43.16494 -85.85634 23935 ft 417 kts 272°
2026-05-08 16:25 43.16572 -85.89610 23936 ft 417 kts 272°
2026-05-08 16:25 43.16650 -85.93593 23942 ft 418 kts 272°
2026-05-08 16:26 43.16726 -85.97557 23940 ft 418 kts 272°
2026-05-08 16:26 43.16798 -86.01542 23942 ft 418 kts 272°
2026-05-08 16:26 43.16866 -86.05572 23943 ft 418 kts 271°
2026-05-08 16:26 43.16880 -86.09561 23946 ft 418 kts 270°
2026-05-08 16:27 43.16837 -86.13539 23941 ft 418 kts 269°
2026-05-08 16:27 43.16760 -86.17525 23941 ft 419 kts 269°
2026-05-08 16:27 43.16670 -86.21491 23861 ft 414 kts 269°
2026-05-08 16:27 43.16583 -86.25418 23943 ft 412 kts 269°
2026-05-08 16:28 43.16507 -86.29339 23941 ft 411 kts 269°
2026-05-08 16:28 43.16439 -86.33250 23943 ft 411 kts 269°
2026-05-08 16:28 43.16375 -86.37163 23944 ft 411 kts 269°
2026-05-08 16:28 43.16318 -86.41063 23945 ft 411 kts 270°
2026-05-08 16:29 43.16264 -86.44990 23434 ft 411 kts 270°
2026-05-08 16:29 43.16206 -86.48873 21953 ft 406 kts 269°
2026-05-08 16:29 43.16142 -86.52682 21125 ft 391 kts 269°
2026-05-08 16:29 43.16077 -86.56321 20365 ft 375 kts 269°
2026-05-08 16:30 43.16012 -86.59831 19749 ft 360 kts 269°
2026-05-08 16:30 43.15949 -86.63136 19610 ft 336 kts 269°
2026-05-08 16:30 43.15890 -86.66225 19483 ft 313 kts 269°
2026-05-08 16:30 43.15833 -86.69103 19269 ft 295 kts 269°
2026-05-08 16:31 43.15778 -86.71893 19015 ft 286 kts 269°
2026-05-08 16:31 43.15728 -86.74598 18772 ft 283 kts 270°
2026-05-08 16:31 43.15680 -86.77289 18522 ft 283 kts 270°
2026-05-08 16:31 43.15630 -86.79976 18277 ft 281 kts 270°
2026-05-08 16:32 43.15578 -86.82641 17839 ft 280 kts 269°
2026-05-08 16:32 43.15524 -86.85309 17325 ft 280 kts 270°
2026-05-08 16:32 43.15470 -86.87979 16808 ft 282 kts 269°
2026-05-08 16:32 43.15414 -86.90656 16317 ft 282 kts 269°
2026-05-08 16:33 43.15356 -86.93343 15835 ft 283 kts 269°
2026-05-08 16:33 43.15297 -86.96011 15515 ft 276 kts 269°
2026-05-08 16:33 43.15240 -86.98629 14870 ft 274 kts 270°
2026-05-08 16:33 43.15186 -87.01187 14327 ft 263 kts 270°
2026-05-08 16:34 43.15133 -87.03692 13877 ft 265 kts 270°
2026-05-08 16:34 43.15078 -87.06230 13506 ft 268 kts 270°
2026-05-08 16:34 43.15020 -87.08779 13127 ft 268 kts 269°
2026-05-08 16:34 43.14962 -87.11330 12745 ft 267 kts 269°
2026-05-08 16:35 43.14904 -87.13901 12398 ft 267 kts 269°
2026-05-08 16:35 43.14846 -87.16435 12021 ft 266 kts 269°
2026-05-08 16:35 43.14787 -87.18955 11674 ft 265 kts 269°
2026-05-08 16:35 43.14730 -87.21400 11326 ft 264 kts 269°
2026-05-08 16:36 43.14670 -87.23905 10956 ft 263 kts 269°
2026-05-08 16:36 43.14605 -87.26400 10610 ft 262 kts 269°
2026-05-08 16:36 43.14543 -87.28893 10256 ft 261 kts 269°
2026-05-08 16:36 43.14483 -87.31373 9906 ft 260 kts 269°
2026-05-08 16:37 43.14423 -87.33846 9527 ft 260 kts 269°
2026-05-08 16:37 43.14310 -87.35480 9294 ft 261 kts 261°
2026-05-08 16:37 43.13750 -87.37841 8937 ft 263 kts 246°
2026-05-08 16:37 43.12828 -87.40022 8569 ft 264 kts 242°
2026-05-08 16:38 43.11884 -87.42179 8206 ft 264 kts 242°
2026-05-08 16:38 43.10939 -87.44340 7848 ft 264 kts 242°
2026-05-08 16:38 43.09998 -87.46489 7488 ft 263 kts 242°
2026-05-08 16:38 43.09062 -87.48628 7135 ft 262 kts 241°
2026-05-08 16:39 43.08126 -87.50764 6776 ft 261 kts 241°
2026-05-08 16:39 43.07196 -87.52889 6424 ft 260 kts 241°
2026-05-08 16:39 43.06266 -87.55013 6056 ft 260 kts 241°
2026-05-08 16:39 43.05402 -87.56985 5721 ft 259 kts 241°
2026-05-08 16:40 43.04479 -87.59089 5369 ft 258 kts 240°
2026-05-08 16:40 43.03555 -87.61191 5014 ft 257 kts 240°
2026-05-08 16:40 43.02637 -87.63281 4664 ft 256 kts 240°
2026-05-08 16:40 43.01726 -87.65360 4443 ft 247 kts 240°
2026-05-08 16:41 43.00896 -87.67363 4121 ft 239 kts 248°
2026-05-08 16:41 43.00327 -87.69507 3686 ft 236 kts 251°
2026-05-08 16:41 42.99816 -87.71611 3322 ft 230 kts 252°
2026-05-08 16:42 42.98858 -87.75655 2713 ft 218 kts 251°
2026-05-08 16:42 42.98401 -87.77571 2434 ft 202 kts 251°
2026-05-08 16:42 42.97986 -87.79302 2165 ft 184 kts 250°
2026-05-08 16:42 42.97597 -87.80916 1907 ft 174 kts 250°
2026-05-08 16:43 42.97228 -87.82442 1686 ft 164 kts 250°
2026-05-08 16:43 42.96889 -87.83841 1476 ft 154 kts 250°
2026-05-08 16:43 42.96569 -87.85168 1275 ft 144 kts 250°
2026-05-08 16:43 42.96269 -87.86456 1130 ft 141 kts 250°
2026-05-08 16:44 42.95966 -87.87756 916 ft 143 kts 247°
2026-05-08 16:44 42.95643 -87.89028 692 ft 133 kts 250°
2026-05-08 16:44 42.95357 -87.90149 937 ft 128 kts 246°
2026-05-08 16:44 42.95036 -87.91378 1529 ft 158 kts 249°
2026-05-08 16:45 42.94599 -87.92926 2171 ft 186 kts 247°
2026-05-08 16:45 42.94066 -87.94649 2676 ft 206 kts 246°
2026-05-08 16:45 42.93480 -87.96503 2963 ft 215 kts 245°
2026-05-08 16:45 42.92864 -87.98352 3010 ft 214 kts 245°
2026-05-08 16:46 42.92247 -88.00187 3013 ft 214 kts 245°
2026-05-08 16:46 42.91601 -88.02001 3000 ft 212 kts 235°
2026-05-08 16:46 42.90542 -88.03384 3005 ft 212 kts 209°
2026-05-08 16:46 42.89125 -88.03867 3027 ft 214 kts 178°
2026-05-08 16:47 42.87694 -88.03302 3256 ft 220 kts 147°
2026-05-08 16:47 42.86632 -88.01761 3506 ft 225 kts 116°
2026-05-08 16:47 42.86327 -87.99655 3765 ft 232 kts 83°
2026-05-08 16:47 42.86765 -87.97554 3952 ft 237 kts 68°
2026-05-08 16:48 42.87400 -87.95449 3995 ft 239 kts 66°
2026-05-08 16:48 42.88050 -87.93376 4005 ft 238 kts 65°
2026-05-08 16:48 42.88704 -87.91301 4009 ft 238 kts 66°
2026-05-08 16:48 42.89356 -87.89230 3996 ft 238 kts 66°
2026-05-08 16:49 42.90008 -87.87165 4008 ft 239 kts 66°
2026-05-08 16:49 42.90662 -87.85097 4005 ft 237 kts 65°
2026-05-08 16:49 42.91316 -87.83028 4000 ft 238 kts 66°
2026-05-08 16:49 42.91970 -87.80956 4006 ft 238 kts 66°
2026-05-08 16:50 42.92626 -87.78870 4009 ft 239 kts 66°
2026-05-08 16:50 42.93282 -87.76786 4011 ft 239 kts 65°
2026-05-08 16:50 42.93937 -87.74694 4009 ft 239 kts 65°
2026-05-08 16:50 42.94590 -87.72601 4010 ft 240 kts 65°
2026-05-08 16:51 42.95238 -87.70519 3805 ft 238 kts 66°
2026-05-08 16:51 42.95885 -87.68454 3506 ft 236 kts 66°
2026-05-08 16:51 42.96533 -87.66409 3227 ft 233 kts 66°
2026-05-08 16:51 42.97177 -87.64395 2941 ft 231 kts 66°
2026-05-08 16:52 42.97917 -87.62471 2656 ft 226 kts 50°
2026-05-08 16:52 42.99087 -87.61170 2514 ft 212 kts 24°
2026-05-08 16:52 43.00471 -87.60648 2279 ft 206 kts
2026-05-08 16:52 43.01875 -87.60929 2013 ft 205 kts 336°
2026-05-08 16:53 43.03920 -87.63528 2011 ft 202 kts 290°
2026-05-08 16:53 43.04213 -87.65371 2010 ft 198 kts 268°
2026-05-08 16:53 43.03982 -87.67201 2010 ft 196 kts 247°
2026-05-08 16:54 43.03274 -87.68771 2008 ft 194 kts 226°
2026-05-08 16:54 43.02196 -87.69856 2009 ft 194 kts 205°
2026-05-08 16:54 43.00954 -87.70574 2005 ft 194 kts 211°
2026-05-08 16:54 42.99968 -87.71794 1943 ft 193 kts 235°
2026-05-08 16:55 42.99408 -87.73454 1997 ft 193 kts 251°
2026-05-08 16:55 42.98988 -87.75197 2005 ft 193 kts 251°
2026-05-08 16:55 42.98572 -87.76917 2016 ft 183 kts 251°
2026-05-08 16:55 42.98195 -87.78483 2009 ft 161 kts 251°
2026-05-08 16:56 42.97857 -87.79884 2012 ft 152 kts 251°
2026-05-08 16:56 42.97527 -87.81248 1835 ft 149 kts 250°
2026-05-08 16:56 42.97214 -87.82537 1659 ft 140 kts 250°
2026-05-08 16:56 42.96919 -87.83782 1443 ft 138 kts 251°
2026-05-08 16:57 42.96629 -87.85046 1287 ft 139 kts 249°
2026-05-08 16:57 42.96315 -87.86287 1130 ft 139 kts 249°
2026-05-08 16:57 42.96014 -87.87556 903 ft 141 kts 247°
2026-05-08 16:57 42.95700 -87.88815 702 ft 137 kts 248°
2026-05-08 16:58 42.95451 -87.89801 682 ft 70 kts 251°
2026-05-08 16:58 42.95387 -87.90071 688 ft 9 kts 255°
2026-05-08 16:58 42.95355 -87.90190 685 ft 11 kts 229°
2026-05-08 16:58 42.95287 -87.90171 687 ft 11 kts 130°
2026-05-08 16:59 42.95231 -87.90086 683 ft 13 kts 132°
2026-05-08 16:59 42.95165 -87.89986 686 ft 15 kts 132°
2026-05-08 16:59 42.95092 -87.89878 682 ft 16 kts 134°
2026-05-08 16:59 42.95040 -87.89819 684 ft 10 kts 151°
2026-05-08 17:00 42.94987 -87.89847 687 ft 9 kts 242°
2026-05-08 17:00 42.94959 -87.89933 684 ft 11 kts 232°
2026-05-08 17:00 42.94893 -87.89993 683 ft 12 kts 203°
2026-05-08 17:00 42.94823 -87.89966 680 ft 12 kts 143°
2026-05-08 17:01 42.94803 -87.89937 687 ft 3 kts 125°
2026-05-08 17:01 42.94798 -87.89926 686 ft 0 kts 127°